Mount Shasta, CA

2:55 PM PDT on April 21, 2018 (GMT -0700)
Mount Shasta

Weather History for KMHS - May, 2014

Change the Weather History Date:

Monday, May 19, 2014

  Actual Average Record
Temperature  
Mean Temperature 52 °F 55 °F  
Max Temperature 68 °F 70 °F 89 °F (2008)
Min Temperature 36 °F 40 °F 29 °F (2003)
Degree Days  
Heating Degree Days 13 10  
Month to date heating degree days 168 231  
Since 1 July heating degree days 4807 5446  
Cooling Degree Days 0 0  
Month to date cooling degree days 1 0  
Year to date cooling degree days 2 0  
Growing Degree Days 2 (Base 50)    
Moisture  
Dew Point 38 °F    
Average Humidity 70    
Maximum Humidity 92    
Minimum Humidity 28    
Precipitation  
Precipitation 0.18 in 0.07 in 1.05 in (1912)
Month to date precipitation 0.43 1.37  
Year to date precipitation 11.78 24.55  
Sea Level Pressure  
Sea Level Pressure 29.95 in    
Wind  
Wind Speed 2 mph (NE)    
Max Wind Speed 9 mph    
Max Gust Speed 18 mph    
Visibility 9 miles    
Events Rain    
T = Trace of Precipitation, MM = Missing Value Source: NWS Daily Summary

Daily Weather History Graph

Daily Weather History Graph

Search for Another Location

Airport or City:

Astronomy

May. 19, 2014 Rise Set
Actual Time 5:46 AM PDT 8:25 PM PDT
Civil Twilight 5:15 AM PDT 8:57 PM PDT
Nautical Twilight 4:35 AM PDT 9:37 PM PDT
Astronomical Twilight 3:50 AM PDT 10:22 PM PDT
Moon 12:15 AM PDT (5/19) 10:51 AM PDT (5/19)
Length of Visible Light 15h 42m
Length of Day
14h 38m
Waning Gibbous, 70% of the Moon is Illuminated
May 19
Waning Gibbous
May 21
Last Quarter
May 28
New
Jun 5
First Quarter
Jun 12
Full

Hourly Weather History & Observations

Time (PDT) Temp. Windchill Dew Point Humidity Pressure Visibility Wind Dir Wind Speed Gust Speed Precip Events Conditions
12:56 AM 42.1 °F 40.2 °F 35.1 °F 76% 29.98 in 10.0 mi ENE 3.5 mph - N/A   Clear
1:56 AM 39.9 °F - 34.0 °F 79% 29.99 in 10.0 mi Calm Calm - N/A   Clear
2:56 AM 39.9 °F - 34.0 °F 79% 29.98 in 10.0 mi Calm Calm - N/A   Partly Cloudy
3:56 AM 39.9 °F - 34.0 °F 79% 29.98 in 10.0 mi Calm Calm - N/A   Overcast
4:56 AM 37.9 °F 35.5 °F 33.1 °F 83% 29.98 in 10.0 mi NE 3.5 mph - N/A   Partly Cloudy
6:56 AM 37.9 °F 35.5 °F 33.1 °F 83% 29.98 in 10.0 mi ENE 3.5 mph - N/A   Partly Cloudy
7:56 AM 48.9 °F - 37.0 °F 64% 29.95 in 10.0 mi Calm Calm - N/A   Mostly Cloudy
8:56 AM 52.0 °F - 37.9 °F 59% 29.94 in 10.0 mi Variable 4.6 mph - N/A   Mostly Cloudy
9:56 AM 55.9 °F - 39.9 °F 55% 29.93 in 10.0 mi Variable 3.5 mph - N/A   Clear
10:56 AM 62.1 °F - 37.9 °F 41% 29.91 in 10.0 mi Calm Calm - N/A   Clear
11:56 AM 64.0 °F - 37.0 °F 37% 29.89 in 10.0 mi Calm Calm - N/A   Partly Cloudy
12:56 PM 64.0 °F - 36.0 °F 35% 29.88 in 10.0 mi Variable 3.5 mph - N/A   Partly Cloudy
1:56 PM 66.9 °F - 32.0 °F 27% 29.87 in 10.0 mi Calm Calm - N/A   Clear
2:56 PM 66.0 °F - 35.1 °F 32% 29.86 in 10.0 mi Variable 3.5 mph - N/A   Partly Cloudy
3:56 PM 64.9 °F - 35.1 °F 33% 29.86 in 10.0 mi Variable 3.5 mph - N/A   Mostly Cloudy
4:56 PM 51.1 °F - 44.1 °F 77% 29.91 in 10.0 mi Variable 5.8 mph - 0.04 in Rain Light Rain
5:56 PM 48.9 °F - 45.0 °F 86% 29.96 in 4.0 mi Calm Calm - 0.04 in Rain Light Rain
6:12 PM 48.0 °F - 44.1 °F 86% 29.91 in 2.5 mi Variable 4.6 mph - 0.04 in Rain Rain
6:21 PM 46.9 °F - 44.1 °F 90% 29.92 in 4.0 mi Calm Calm - 0.05 in Rain Light Rain
6:56 PM 46.9 °F - 43.0 °F 86% 29.99 in 10.0 mi Variable 4.6 mph - 0.08 in Rain Light Rain
7:56 PM 46.0 °F 43.9 °F 41.0 °F 83% 29.99 in 10.0 mi Variable 4.6 mph - 0.00 in   Overcast
8:56 PM 45.0 °F - 39.9 °F 82% 30.00 in 10.0 mi Calm Calm - 0.00 in Rain Light Rain
9:41 PM 45.0 °F - 42.1 °F 90% 29.97 in 10.0 mi Calm Calm - 0.00 in Rain Light Rain
9:56 PM 45.0 °F - 42.1 °F 90% 30.00 in 10.0 mi North - - 0.00 in Rain Light Rain
10:56 PM 44.1 °F - 41.0 °F 89% 30.00 in 10.0 mi Calm Calm - 0.02 in   Overcast
11:56 PM 44.1 °F 40.8 °F 41.0 °F 89% 29.99 in 10.0 mi North 5.8 mph - N/A   Mostly Cloudy